www.pogodaiklimat.ru

Погода и климат >> Архив погоды >> Великобритания >> Троскоед


ПОГОДА в Троскоеде

  • Прогноз погоды в Троскоеде
  • Монитор погоды в Троскоеде

АРХИВ ПОГОДЫ в Троскоеде

Время (UTC), дата Ветер
(напр.,м/с)
 
Видим.   Явления Облачность Т
(С)
Тd
(С)
f
(%)
Тe
(С)
Тes
(С)
Комфортность P
(гПа)
Po
(гПа)
Тmin
(С)
Tmax
(С)
R
(мм)
R24
(мм)
S
(см)
13 18.06 СЗ 2 40 км н/о +17.1 +12.6 75 +18 +18 1012.8 1005.3
14 18.06 З 3 22 км н/о +17.6 +13.7 78 +18 +18 1012.5 1005.0
15 18.06 З 3 28 км слаб. ливневой дождь н/о +14.9 +12.2 84 +14 +14 1012.5 1004.9
16 18.06 СЗ 2 24 км слаб. морось с дождем н/о +15.3 +12.3 82 +15 +15 1012.1 1004.6
17 18.06 З 1 19 км слаб. дождь н/о +14.8 +12.7 87 +15 +15 1012.0 1004.5
18 18.06 З 1 12 км слаб. дождь н/о +14.5 +13.1 91 +15 +15 1011.9 1004.4 +18.2 0.4
19 18.06 СЗ 1 30 км слаб. дождь н/о +13.8 +12.1 89 +15 +15 1011.9 1004.3
20 18.06 В 1 24 км слаб. ливневой дождь н/о +13.6 +12.7 94 +14 +14 1011.6 1004.0
21 18.06 В 1 11 км слаб. дождь н/о +13.3 +12.6 96 +14 +14 1011.6 1004.0
22 18.06 штиль 0 10 км слаб. дождь н/о +12.9 +12.2 96 +12 +12 1011.6 1004.0
23 18.06 штиль 0 10 км слаб. морось с дождем н/о +12.6 +12.0 96 +12 +12 1011.2 1003.6
00 19.06 штиль 0 7000 м в посл. час дождь н/о +12.5 +12.0 97 +12 +12 1010.4 1002.8 0.6
01 19.06 штиль 0 15 км в посл. час дождь н/о +12.3 +12.0 98 +12 +12 1010.1 1002.5
02 19.06 штиль 0 7000 м в посл. час дождь н/о +12.2 +11.9 98 +12 +12 1009.7 1002.2
03 19.06 В 1 4500 м дымка н/о +12.1 +11.8 98 +13 +13 1009.3 1001.7
04 19.06 штиль 0 200 м туман н/о +12.0 +11.7 98 +11 +11 1009.2 1001.6
05 19.06 штиль 0 1500 м в посл. час дождь н/о +11.9 +11.7 99 +11 +11 1009.4 1001.8
06 19.06 ЮВ 1 9000 м слаб. ливневой дождь н/о +12.1 +11.9 99 +13 +13 1009.1 1001.5 +11.9 1
07 19.06 З 1 12 км слаб. ливневой дождь н/о +12.9 +12.7 99 +13 +13 1009.1 1001.5
08 19.06 З 3 24 км в посл. час дождь н/о +14.0 +12.7 92 +13 +13 1009.1 1001.6
09 19.06 З 3 30 км н/о +14.6 +12.1 85 +14 +14 1009.0 1001.5
10 19.06 З 3 24 км н/о +15.1 +11.1 77 +15 +15 1009.2 1001.7
11 19.06 СЗ 3 40 км н/о +15.8 +10.9 73 +16 +16 1009.2 1001.7
12 19.06 З 3 30 км н/о +17.1 +12.5 74 +17 +17 1009.4 1001.9 0.0
13 19.06 СЗ 3 21 км н/о +17.8 +13.2 74 +18 +18 1009.4 1001.9
14 19.06 З 5 21 км н/о +17.6 +12.2 71 +17 +17 1009.3 1001.8
15 19.06 З 4 30 км н/о +17.9 +11.7 67 +18 +18 1009.2 1001.8
16 19.06 З 4 30 км н/о +17.1 +11.7 71 +17 +17 1009.2 1001.8
17 19.06 З 3 20 км н/о +16.9 +11.0 68 +17 +17 1009.2 1001.7
18 19.06 З 3 30 км н/о +17.0 +9.8 63 +17 +17 1009.3 1001.8 +18.3 0.0
19 19.06 З 5 29 км н/о +14.5 +10.0 74 +13 +13 1009.9 1002.4
20 19.06 З 2 30 км н/о +13.5 +9.9 79 +13 +13 1010.4 1002.9
21 19.06 Ю 1 21 км н/о +10.2 +8.4 89 +11 +11 1010.8 1003.2
22 19.06 штиль 0 14 км н/о +8.0 +6.9 93 +7 +7 1010.8 1003.1
23 19.06 В 1 13 км дымка н/о +7.0 +6.4 96 +7 +7 1010.9 1003.1
00 20.06 ЮВ 2 13 км н/о +7.7 +7.4 98 +6 +6 1010.8 1003.1
01 20.06 Ю 2 35 км н/о +10.4 +9.6 95 +9 +9 1010.6 1003.0
02 20.06 ЮВ 2 30 км н/о +10.7 +9.8 94 +10 +10 1010.5 1002.9
03 20.06 ЮЗ 2 40 км н/о +12.1 +10.5 90 +11 +11 1010.4 1002.8
04 20.06 З 3 45 км н/о +11.9 +9.9 88 +10 +10 1010.6 1003.0
05 20.06 З 2 45 км н/о +11.7 +9.1 84 +11 +11 1010.8 1003.2
06 20.06 З 3 45 км н/о +12.2 +9.5 84 +11 +11 1011.0 1003.4 +6.7
07 20.06 З 4 13 км слаб. ливневой дождь н/о +12.7 +9.6 81 +11 +11 1011.4 1003.9
08 20.06 З 4 35 км в посл. час дождь н/о +13.1 +9.2 77 +12 +12 1011.8 1004.2
09 20.06 З 5 30 км слаб. ливневой дождь н/о +12.7 +8.7 77 +11 +11 1012.1 1004.6
10 20.06 З 4 35 км в посл. час дождь н/о +13.9 +9.2 73 +13 +13 1012.5 1004.9
11 20.06 З 5 40 км н/о +14.6 +8.8 68 +13 +13 1013.1 1005.5
12 20.06 З 5 30 км н/о +14.8 +8.7 67 +13 +13 1013.3 1005.8 0.0
13 20.06 З 5 23 км н/о +15.2 +7.3 59 +14 +14 1013.5 1006.0
14 20.06 З 5 30 км н/о +15.6 +7.2 57 +15 +15 1013.4 1005.9
15 20.06 З 5 22 км н/о +15.8 +7.3 57 +15 +15 1013.6 1006.1
16 20.06 З 6 40 км н/о +15.1 +7.6 61 +14 +14 1013.8 1006.2
17 20.06 З 5 35 км н/о +15.0 +7.4 60 +14 +14 1014.1 1006.6
18 20.06 З 4 40 км н/о +14.8 +7.8 63 +14 +14 1014.2 1006.7 +16.2 0.0
19 20.06 З 4 35 км н/о +13.8 +8.8 72 +13 +13 1014.6 1007.1
20 20.06 З 2 29 км н/о +12.6 +8.2 75 +12 +12 1014.7 1007.1
21 20.06 ЮВ 1 28 км н/о +10.8 +8.5 86 +10 +10 1015.2 1007.6
22 20.06 Ю 1 14 км н/о +8.5 +7.3 92 +8 +8 1015.6 1007.9
23 20.06 Ю 1 30 км н/о +9.3 +8.7 96 +10 +10 1015.9 1008.2
00 21.06 Ю 2 27 км н/о +10.2 +8.5 89 +9 +9 1016.1 1008.4
01 21.06 Ю 1 25 км н/о +9.4 +7.9 90 +9 +9 1016.2 1008.5
02 21.06 ЮВ 2 19 км н/о +9.2 +8.1 93 +8 +8 1016.6 1008.9
03 21.06 ЮВ 2 20 км н/о +9.5 +8.4 93 +8 +8 1016.8 1009.1
04 21.06 ЮВ 1 20 км н/о +9.9 +8.8 93 +9 +9 1017.0 1009.3
05 21.06 СЗ 1 20 км н/о +10.2 +9.5 95 +11 +11 1017.3 1009.6
06 21.06 штиль 0 25 км н/о +11.5 +10.3 92 +11 +11 1017.9 1010.2 +8.0
07 21.06 СЗ 2 30 км н/о +13.4 +10.3 81 +13 +13 1018.4 1010.8
08 21.06 СЗ 3 30 км н/о +13.6 +10.2 80 +12 +12 1019.1 1011.4
09 21.06 З 3 19 км н/о +14.1 +8.9 71 +13 +13 1019.5 1011.9
10 21.06 З 3 26 км н/о +14.6 +8.2 65 +14 +14 1019.7 1012.1
11 21.06 З 4 30 км н/о +15.3 +8.7 65 +14 +14 1020.1 1012.5
12 21.06 СЗ 4 40 км н/о +14.8 +8.4 65 +14 +14 1020.5 1012.9
13 21.06 З 4 30 км н/о +15.8 +8.3 61 +15 +15 1020.8 1013.3
14 21.06 СЗ 4 22 км н/о +15.6 +8.0 61 +15 +15 1021.2 1013.6
15 21.06 З 4 29 км н/о +15.8 +7.5 58 +15 +15 1021.2 1013.6
16 21.06 СЗ 3 28 км н/о +15.5 +6.5 55 +15 +15 1021.3 1013.7
17 21.06 З 3 30 км н/о +15.7 +6.0 52 +15 +15 1021.4 1013.8
18 21.06 З 3 21 км н/о +15.4 +6.4 55 +15 +15 1021.5 1013.9 +16.3
19 21.06 З 3 30 км н/о +14.6 +5.5 54 +14 +14 1021.8 1014.2
20 21.06 СЗ 2 29 км н/о +12.9 +6.4 65 +13 +13 1022.0 1014.3
21 21.06 Ю 1 45 км н/о +8.8 +6.1 83 +9 +9 1022.5 1014.8
22 21.06 штиль 0 50 км н/о +6.4 +4.8 89 +5 +5 1022.7 1014.9
23 21.06 штиль 0 30 км н/о +4.9 +3.9 93 +4 +4 1022.8 1014.9
00 22.06 ЮВ 1 28 км н/о +4.7 +4.1 96 +4 +4 1022.8 1014.9
01 22.06 штиль 0 35 км н/о +3.8 +3.3 97 +3 +3 1022.9 1015.0
02 22.06 ЮВ 1 16 км н/о +4.1 +3.7 97 +4 +4 1022.6 1014.7
03 22.06 штиль 0 10 км н/о +3.3 +2.9 97 +2 +2 1022.1 1014.2
04 22.06 ЮВ 1 18 км н/о +4.0 +3.8 99 +4 +4 1021.9 1014.0
05 22.06 В 1 30 км н/о +3.8 +3.6 99 +3 +3 1021.7 1013.8
06 22.06 В 1 28 км н/о +6.9 +6.9 100 +7 +7 1021.5 1013.7 +3.1
07 22.06 В 1 40 км н/о +12.2 +10.5 89 +13 +13 1021.1 1013.5
08 22.06 З 1 24 км н/о +16.3 +10.6 69 +18 +18 1020.9 1013.3
09 22.06 Ю 1 40 км н/о +18.3 +9.5 56 +20 +20 1020.5 1013.0
10 22.06 Ю 3 27 км н/о +19.3 +8.7 50 +20 +20 1020.0 1012.6
11 22.06 Ю 3 35 км н/о +20.7 +9.9 50 +23 +23 комфорт 1019.6 1012.2
12 22.06 ЮЗ 3 30 км н/о +20.4 +5.9 39 +22 +22 комфорт 1019.3 1011.9
13 22.06 З 4 30 км н/о +20.7 +11.2 54 +23 +23 комфорт 1018.7 1011.3
14 22.06 З 4 23 км н/о +20.3 +12.3 60 +22 +22 комфорт 1018.4 1011.0
15 22.06 З 4 30 км н/о +20.1 +11.9 59 +22 +22 комфорт 1018.3 1010.9
16 22.06 З 4 27 км н/о +20.6 +11.3 55 +23 +23 комфорт 1017.8 1010.4
17 22.06 З 4 35 км н/о +19.8 +10.7 56 +21 +21 комфорт 1017.7 1010.3
18 22.06 З 3 35 км н/о +19.2 +10.4 57 +20 +20 1017.7 1010.3 +22.0
19 22.06 З 2 50 км н/о +17.2 +10.7 66 +18 +18 1018.0 1010.5
20 22.06 В 1 45 км н/о +15.2 +10.7 74 +16 +16 1018.0 1010.4
21 22.06 З 1 50 км н/о +12.0 +10.0 88 +13 +13 1018.4 1010.7
22 22.06 ЮВ 1 29 км н/о +11.9 +10.7 92 +12 +12 1018.3 1010.7
23 22.06 Ю 1 35 км н/о +11.3 +10.2 93 +12 +12 1017.8 1010.2
00 23.06 СЗ 1 45 км н/о +11.8 +10.7 93 +12 +12 1018.1 1010.5
01 23.06 Ю 1 45 км н/о +12.1 +10.5 90 +12 +12 1018.0 1010.4
02 23.06 ЮВ 4 50 км н/о +14.9 +8.8 67 +14 +14 1017.5 1010.0
03 23.06 ЮВ 4 50 км н/о +15.6 +8.2 61 +15 +15 1017.1 1009.5
04 23.06 ЮВ 4 50 км н/о +15.0 +8.2 64 +14 +14 1016.7 1009.2
05 23.06 ЮВ 3 50 км н/о +15.0 +8.0 63 +15 +15 1016.8 1009.2
06 23.06 ЮВ 4 40 км н/о +15.7 +7.9 60 +15 +15 1016.6 1009.0 +11.2
07 23.06 ЮВ 4 40 км н/о +16.0 +8.2 60 +15 +15 1016.2 1008.7
08 23.06 ЮВ 4 45 км н/о +16.1 +8.9 62 +16 +16 1016.6 1009.1
09 23.06 ЮВ 4 30 км дым н/о +17.8 +10.7 63 +18 +18 1016.5 1009.0
10 23.06 В 4 30 км н/о +18.6 +11.2 62 +19 +19 1016.2 1008.7
11 23.06 В 6 29 км н/о +19.0 +12.0 64 +20 +20 1015.3 1007.8
12 23.06 В 5 20 км н/о +19.5 +12.8 65 +21 +21 комфорт 1015.3 1007.8
13 23.06 В 5 25 км н/о +19.8 +13.6 67 +22 +22 комфорт 1015.4 1008.0
14 23.06 В 4 18 км н/о +18.9 +13.7 72 +20 +20 1015.5 1008.0
15 23.06 В 6
{13}
9000 м дождь н/о +17.4 +14.9 85 +17 +17 1015.3 1007.8
16 23.06 В 5 14 км слаб. дождь н/о +17.1 +14.8 86 +16 +16 1014.6 1007.1
17 23.06 В 3 15 км дождь н/о +17.0 +14.7 86 +17 +17 1014.1 1006.6
18 23.06 В 2 5000 м дождь н/о +16.7 +15.3 91 +17 +17 1013.7 1006.3 +19.9 3
19 23.06 В 4 35 км в посл. час дождь н/о +17.8 +15.9 89 +18 +18 1013.3 1005.8
20 23.06 В 8-13
{13}
18 км в посл. час дождь н/о +18.8 +15.9 83 +19 +19 1013.0 1005.6
21 23.06 ЮВ 3 20 км в посл. час дождь н/о +18.5 +15.9 85 +19 +19 1013.7 1006.3
22 23.06 В 8 19 км н/о +19.1 +15.9 82 +20 +20 1013.6 1006.1
23 23.06 В 6 16 км н/о +18.5 +15.6 83 +19 +19 1013.7 1006.2
00 24.06 В 6 15 км н/о +18.0 +15.3 84 +18 +18 1013.4 1005.9 0.8
01 24.06 Ю 2 16 км н/о +17.6 +15.0 85 +18 +18 1013.5 1006.1
02 24.06 З 2 11 км н/о +16.5 +14.6 89 +17 +17 1013.2 1005.7
03 24.06 З 2 10 км в посл. час дождь н/о +16.4 +14.6 89 +17 +17 1013.4 1005.9
04 24.06 З 2 11 км дым н/о +15.8 +14.2 90 +16 +16 1013.5 1006.0
05 24.06 З 2 8000 м дым н/о +15.5 +14.3 93 +16 +16 1013.7 1006.2
06 24.06 З 1 9000 м дым н/о +16.4 +15.2 93 +17 +17 1013.9 1006.4 +15.4 0.8
07 24.06 З 1 10 км дым н/о +17.3 +15.7 90 +19 +19 1014.2 1006.8
08 24.06 СЗ 1 9000 м дым н/о +17.9 +16.0 89 +20 +20 1014.7 1007.3
09 24.06 З 1 13 км н/о +20.0 +16.7 81 +24 +24 комфорт 1015.2 1007.8
10 24.06 ЮЗ 2 11 км н/о +20.6 +16.9 79 +25 +25 комфорт 1015.4 1008.0
11 24.06 СЗ 4 10 км дым н/о +18.9 +16.2 84 +20 +20 1015.7 1008.3
12 24.06 З 3 10 км н/о +20.4 +17.2 82 +24 +24 комфорт 1016.0 1008.5
13 24.06 СЗ 4 5000 м дым н/о +18.3 +16.1 87 +19 +19 1016.7 1009.3
14 24.06 СЗ 2 5000 м дым н/о +17.4 +15.4 88 +18 +18 1017.3 1009.8
15 24.06 СЗ 2 5000 м дым н/о +17.2 +15.2 88 +17 +17 1017.5 1010.0
16 24.06 СЗ 2 5000 м дым н/о +17.2 +15.1 87 +18 +18 1017.8 1010.3
17 24.06 СЗ 2 6000 м дым н/о +17.2 +15.1 87 +17 +17 1017.8 1010.3
18 24.06 СЗ 2 9000 м дым н/о +17.7 +15.0 84 +18 +18 1017.8 1010.3 +21.0
19 24.06 З 3 8000 м дым н/о +16.5 +14.3 87 +16 +16 1018.5 1010.9
20 24.06 З 3 5000 м дым н/о +15.3 +14.0 92 +15 +15 1019.1 1011.5
21 24.06 З 2 3500 м дымка н/о +14.9 +14.1 95 +14 +14 1019.5 1011.9
22 24.06 СЗ 1 3000 м дымка н/о +14.8 +14.2 96 +15 +15 1019.9 1012.3
23 24.06 В 1 2900 м дымка н/о +14.7 +14.2 97 +15 +15 1019.8 1012.3
00 25.06 С 1 3000 м дымка н/о +14.3 +13.7 96 +15 +15 1019.3 1011.7
01 25.06 штиль 0 9000 м дымка н/о +14.3 +13.6 96 +14 +14 1019.0 1011.4
02 25.06 Ю 1 3400 м дымка н/о +14.1 +13.3 95 +15 +15 1018.8 1011.2
03 25.06 СЗ 2 3300 м дымка н/о +13.9 +13.5 97 +14 +14 1018.6 1011.0
04 25.06 штиль 0 2200 м дымка н/о +14.0 +13.6 97 +14 +14 1018.6 1011.0
05 25.06 З 1 200 м туман н/о +14.1 +13.8 98 +15 +15 1019.0 1011.4
06 25.06 Ю 1 300 м слаб. ливневой дождь н/о +14.2 +14.0 99 +14 +14 1018.9 1011.3 +13.4 0.0
07 25.06 Ю 1 2200 м слаб. дождь н/о +14.5 +14.3 99 +15 +15 1018.8 1011.3
08 25.06 З 2 3700 м слаб. дождь н/о +15.0 +14.7 98 +15 +15 1018.9 1011.3
09 25.06 З 1 4400 м в посл. час дождь н/о +15.4 +15.1 98 +16 +16 1019.4 1011.9
10 25.06 ЮЗ 1 4500 м слаб. ливневой дождь н/о +15.9 +15.4 97 +17 +17 1019.8 1012.3
11 25.06 ЮЗ 1 7000 м слаб. морось с дождем н/о +17.6 +15.9 90 +19 +19 1019.9 1012.4
12 25.06 ЮЗ 1 8000 м слаб. ливневой дождь н/о +18.2 +16.2 88 +20 +20 1020.2 1012.7 1
13 25.06 З 2 7000 м слаб. дождь н/о +18.4 +16.8 90 +20 +20 1020.4 1012.9

 

Местоположение метеостанции Троскоед (Великобритания): широта 52.35 долгота -3.95 высота над уровнем моря 62 м.

В архиве по умолчанию представлена погода в Троскоеде за последнюю неделю. Архивные данные за месяц целиком и за предыдущие месяцы, начиная с января 2011 года, Вы можете получить, выбрав интересующий диапазон дат из раскрывающегося списка и нажав кнопку "Ввод!".


*Определитесь, кто Вы:
робот инопланетянин человек

Внимание! Время в таблицах - всемирное. Для получения местного времени необходимо прибавить поправку, которая равна 0 ч.

Смотрите также архив погоды в соседних городах и на ближайших метеорологических станциях:

Погода в Сеннибридже (Великобритания) (38 км)
Погода в Аберпорте (Великобритания) (49 км)
Погода на Озере Вирнви (Великобритания) (55 км)
Погода в Бала (Великобритания) (66 км)
Погода в Абердароне (Великобритания) (71 км)
Погода в Шобдоне (Великобритания) (74 км)
Погода в Пембри Сэндс (Великобритания) (76 км)
Погода в Кейпл Кериг (Великобритания) (83 км)
Погода в Хирфорде (Великобритания) (84 км)
Погода в Мамблсе (Великобритания) (87 км)

Пояснения к столбцам:

Ветер - указаны скорость ветра в м/с - средняя за 10 мин, порывы в срок и между сроками (в фигурных скобках) и направление, откуда дует ветер: С - северный, СВ - северо-восточный, В - восточный, ЮВ - юго-восточный, Ю - южный, ЮЗ - юго-западный, З - западный, СЗ - северо-западный.
Видимость - горизонтальная дальность видимости в метрах или километрах. При видимости от 1 до 10 км при отсутствии осадков обычно наблюдается дымка, при ухудшении видимости до 1 км и менее - туман. В сухую погоду видимость может ухудшаться дымом, пылью или мглою.
Явления - указаны атмосферные явления, наблюдавшиеся в срок или в последний час перед сроком; фигурными скобками обозначены явления, наблюдавшиеся между сроками (за 1-3 часа до срока); квадратными скобками обозначены град или гололедные отложения с указанием их диаметра в мм.
Облачность - указаны через наклонную черту общая и нижняя облачность в баллах и высота нижней границы облаков в метрах; квадратными скобками обозначены формы облаков: Ci - перистые, Cs - перисто-слоистые, Cc - перисто-кучевые, Ac - высококучевые, As - высокослоистые, Sc - слоисто-кучевые, Ns - слоисто-дождевые, Cu - кучевые, Cb - кучево-дождевые. Подробнее классификацию облаков см. в Атласе облаков (PDF).
T - Температура воздуха - температура, измеренная на высоте 2 м над землей.
Td - Температура точки росы - температура, при понижении до которой содержащийся в воздухе водяной пар достигнет насыщения.
f - Относительная влажность воздуха - влажноcть воздуха, измеренная на высоте 2 м над землей.
Te - Эффективная температура - температура, которую ощущает одетый по сезону человек в тени. Характеристика душности погоды. При расчете учитывается влияние влажности воздуха и скорости ветра на теплоощущения человека.
Tes - Эффективная температура на солнце - температура, которую ощущает человек, с поправкой на солнечный нагрев. Характеристика знойности погоды. Зависит от высоты солнца над горизонтом, облачности и скорости ветра. Ночью, в пасмурную погоду, а также при ветре 12 м/с и более поправка равна нулю.
P - Атмосферное давление - приведенное к уровню моря атмосферное давление.
Po - Атмосферное давление - измеренное на уровне метеостанции атмосферное давление.
Tmin - Минимальная температура - минимум температуры воздуха на высоте 2 м над землей.
Tmax - Максимальная температура - максимум температуры воздуха на высоте 2 м над землей.
R - Количество осадков - Количество выпавших осадков за период времени, мм. При наведении курсора мыши на число - период времени, за который выпало указанное количество осадков.
R24 - Количество осадков - Количество выпавших осадков за 24 часа, мм.
S - Снежный покров - Высота снежного покрова, см. При наведении курсора мыши на число - состояние снежного покрова и степень покрытия местности в баллах.